Weather History for KEYW - January, 2014

Change the Weather History Date:

Thursday, January 2, 2014

  Actual Average Record
Temperature  
Mean Temperature 77 °F 69 °F  
Max Temperature 80 °F 74 °F 85 °F (1942)
Min Temperature 74 °F 64 °F 47 °F (1898)
Degree Days  
Heating Degree Days 0 1  
Month to date heating degree days 0 2  
Since 1 July heating degree days 0 20  
Cooling Degree Days 12 6  
Month to date cooling degree days 25 12  
Year to date cooling degree days 25 12  
Growing Degree Days 26 (Base 50)    
Moisture  
Dew Point 71 °F    
Average Humidity 84    
Maximum Humidity 93    
Minimum Humidity 74    
Precipitation  
Precipitation 0.00 in 0.06 in 1.67 in (1958)
Month to date precipitation 0.00 0.12  
Year to date precipitation 0.00 0.12  
Snow  
Snow 0.00 in - - ()
Month to date snowfall 0.0  
Since 1 July snowfall 0.0  
Snow Depth 0.00 in    
Sea Level Pressure  
Sea Level Pressure 29.99 in    
Wind  
Wind Speed 10 mph (SSW)    
Max Wind Speed 18 mph    
Max Gust Speed 23 mph    
Visibility 10 miles    
Events      
T = Trace of Precipitation, MM = Missing Value Source: NWS Daily Summary

Daily Weather History Graph

Daily Weather History Graph

Search for Another Location

Airport or City:

Trip Planner

Search our weather history database for the weather conditions in past years. The results will help you decide how hot, cold, wet, or windy it might be!

Date:

Astronomy

Jan. 02, 2014 Rise Set
Actual Time 7:11 AM EST 5:50 PM EST
Civil Twilight 6:46 AM EST 6:15 PM EST
Nautical Twilight 6:18 AM EST 6:43 PM EST
Astronomical Twilight 5:50 AM EST 7:11 PM EST
Moon 8:03 AM EST 7:32 PM EST
Length of Visible Light 11h 29m
Length of Day
10h 39m
New Moon, 2% of the Moon is Illuminated
Jan 2
New Moon
Jan 7
First Quarter
Jan 15
Full
Jan 24
Last Quarter
Jan 30
New

Hourly Weather History & Observations

Time (EST) Temp. Heat Index Dew Point Humidity Pressure Visibility Wind Dir Wind Speed Gust Speed Precip Events Conditions
12:53 AM 77.0 °F - 71.1 °F 82% 30.02 in 10.0 mi SE 13.8 mph - N/A   Clear
1:53 AM 77.0 °F - 71.1 °F 82% 30.01 in 10.0 mi SE 11.5 mph - N/A   Partly Cloudy
2:53 AM 77.0 °F - 70.0 °F 79% 29.99 in 10.0 mi SE 16.1 mph - N/A   Clear
3:53 AM 77.0 °F - 70.0 °F 79% 29.99 in 10.0 mi SSE 13.8 mph - N/A   Clear
4:53 AM 77.0 °F - 70.0 °F 79% 29.99 in 10.0 mi SSE 15.0 mph - N/A   Scattered Clouds
5:53 AM 77.0 °F - 68.0 °F 74% 29.99 in 10.0 mi South 15.0 mph - N/A   Clear
6:53 AM 77.0 °F - 68.0 °F 74% 30.00 in 10.0 mi South 12.7 mph - N/A   Clear
7:53 AM 77.0 °F - 69.1 °F 76% 30.02 in 10.0 mi South 15.0 mph - N/A   Partly Cloudy
8:53 AM 78.1 °F - 70.0 °F 76% 30.04 in 10.0 mi South 13.8 mph - N/A   Clear
9:53 AM 79.0 °F - 71.1 °F 77% 30.04 in 10.0 mi South 11.5 mph - N/A   Clear
10:53 AM 80.1 °F 83.6 °F 71.1 °F 74% 30.03 in 10.0 mi South 11.5 mph - N/A   Clear
11:53 AM 80.1 °F 83.8 °F 72.0 °F 76% 30.00 in 10.0 mi South 11.5 mph - N/A   Clear
12:53 PM 80.1 °F 83.6 °F 71.1 °F 74% 29.97 in 10.0 mi SSW 11.5 mph - N/A   Clear
1:53 PM 80.1 °F 83.6 °F 71.1 °F 74% 29.95 in 10.0 mi SW 10.4 mph - N/A   Clear
2:53 PM 80.1 °F 83.6 °F 71.1 °F 74% 29.94 in 10.0 mi SW 9.2 mph - N/A   Clear
3:53 PM 79.0 °F - 71.1 °F 77% 29.93 in 6.0 mi SW 8.1 mph - N/A   Haze
4:53 PM 79.0 °F - 71.1 °F 77% 29.94 in 10.0 mi WSW 8.1 mph - N/A   Clear
5:53 PM 77.0 °F - 70.0 °F 79% 29.94 in 10.0 mi WSW 6.9 mph - N/A   Clear
6:53 PM 75.9 °F - 70.0 °F 82% 29.95 in 10.0 mi West 5.8 mph - N/A   Clear
7:53 PM 75.0 °F - 71.1 °F 87% 29.96 in 10.0 mi West 4.6 mph - N/A   Clear
8:53 PM 75.0 °F - 72.0 °F 90% 29.98 in 10.0 mi WNW 4.6 mph - N/A   Clear
9:53 PM 73.9 °F - 72.0 °F 93% 29.99 in 10.0 mi West 4.6 mph - N/A   Clear
10:53 PM 73.9 °F - 72.0 °F 93% 29.98 in 10.0 mi West 4.6 mph - N/A   Clear
11:53 PM 75.0 °F - 71.1 °F 87% 29.99 in 10.0 mi West 6.9 mph - N/A   Clear